Regional Weather Roundup
Issued by NWS

Home | Current Version | Previous Version | Text Only | Print | Product List | Glossary Off
Versions: 1 2 3 4 5 6 7 8 9 10 11 12 13 14 15 16 17 18 19 20 21 22 23 24 25 26 27 28 29 30 31 32 33 34 35 36 37 38 39 40 41 42 43 44 45 46 47 48

000
ASUS45 KSLC 242110
RWRUT

UTAH REGIONAL WEATHER ROUNDUP
NATIONAL WEATHER SERVICE SALT LAKE CITY UT
200 PM MST SAT JAN 24 2015

UTZ001>011-023>025-242200-

NORTHERN UTAH

CITY           SKY/WX    TMP DP  RH WIND       PRES   REMARKS
BRIGHAM CITY   CLOUDY    35  24  66 W6        30.47F WCI  29
HILL AFB       CLOUDY    35  17  47 CALM      30.45F
LOGAN          CLOUDY    31  24  75 CALM      30.46F
OGDEN          CLOUDY    37  22  54 CALM      30.45F
PROVO AIRPORT  NOT AVBL
SALT LAKE CITY PTSUNNY   40  21  46 CALM      30.45F
VERNAL         PTSUNNY   34  14  43 CALM      30.33F
WENDOVER       SUNNY     39  28  65 E8        30.44F WCI  34
HEBER CITY     MOSUNNY   32  19  59 CALM      30.41F
WEST JORDAN    PTSUNNY   39  21  48 CALM      30.44F

$$

UTZ012>022-026-027-242200-

SOUTHERN/CENTRAL UTAH

CITY           SKY/WX    TMP DP  RH WIND       PRES   REMARKS
BLANDING       SUNNY     44  14  29 SW8       30.36F
BRYCE CANYON   SUNNY     48  15  26 NW6       30.35F
CEDAR CITY     SUNNY     45  20  36 N9        30.38F
DELTA          SUNNY     40  22  47 CALM      30.44F
MILFORD        SUNNY     44  23  43 N10       30.40F
MOAB/CYNLANDS  SUNNY     42  13  30 CALM      30.31F
PRICE          MOSUNNY   40  17  39 VRB3      30.30F
ST GEORGE      PTCLDY    55  21  26 CALM      30.32F
KANAB          SUNNY     54  19  26 E14       30.33F

$$

REGIONAL REPORTS     COLORADO/ARIZONA

CITY           SKY/WX    TMP DP  RH WIND       PRES   REMARKS
CRAIG, CO      CLOUDY    27  14  58 CALM      30.31F
GRAND JUNCTION PTSUNNY   38  10  31 CALM      30.32F
RIFLE          CLOUDY    35  12  38 CALM      30.34F
MONTROSE       PTSUNNY   37  11  34 CALM      30.31F
CORTEZ         SUNNY     43  16  33 SW8       30.27F
PAGE, AZ       NOT AVBL
GRAND CANYON   MOSUNNY   46  12  25 NE14      30.32F
KINGMAN        SUNNY     61  14  16 N17       30.23F
FLAGSTAFF      SUNNY     46  10  23 E13G24    30.29F

$$

REGIONAL REPORTS    NEVADA/IDAHO/WYOMING

CITY           SKY/WX    TMP DP  RH WIND       PRES   REMARKS
LAS VEGAS, NV  SUNNY     64  21  19 CALM      30.23F
ELY            SUNNY     47  18  31 N6        30.41F
ELKO           SUNNY     48  30  49 SW8       30.43F
POCATELLO, ID  CLOUDY    31  28  89 VRB3      30.41F
BURLEY         CLOUDY    39  30  70 CALM      30.40F
EVANSTON, WY   CLOUDY    35  24  64 SW18      30.37R WCI  24
ROCK SPRINGS   CLOUDY    37  20  50 W33G41    30.22F WCI  24
KEMMERER       CLOUDY    30  25  80 W14       30.35S WCI  20

$$


USA.gov is the U.S. government's official web portal to all federal, state and local government web resources and services.